User: anonymous   Login
Location: B?jaj?g
(11.7167°N, 92.6667°E)
Time: 11:25:50
(UTC+00:00)
Language:

Meteor 1-23 Rocket - Orbit

View from above orbital plane
View from above orbital plane
View from above satellite
View from above satellite

Ground track
Ground track

The orbit data is extracted from the following two-line orbital elements,

1 08520U 75124B   22275.81460874  .00000058  00000-0  26105-4 0  9991
2 08520  81.2881  98.5867 0037957 236.4270 123.3275 14.09064318403188
Epoch (UTC): 02 October 2022 19:33:02
Eccentricity: 0.0037957
inclination: 81.2881°
perigee height: 835 km
apogee height: 890 km
right ascension of ascending node: 98.5867°
argument of perigee: 236.4270°
revolutions per day: 14.09064318
mean anomaly at epoch: 123.3275°
orbit number at epoch: 40318

The dashed part of the orbit path shows where the satellite is in the earth's shadow,  

DLR